This is the latest recevied weather packets stored in our database for station/object LZ1NAG-10. If no packets are shown the sender has not sent any weather packets the latest 10 day(s).
| Time | Temp. | Humidity | Pressure | Rain* | Wind** | Luminosity | Snow |
|---|---|---|---|---|---|---|---|
| 1777645890 | 6.11° C | 54% | 1026.8 hPa | - | - | - | - |
| 1777644990 | 6.11° C | 54% | 1026.7 hPa | - | - | - | - |
| 1777644090 | 6.67° C | 54% | 1026.8 hPa | - | - | - | - |
| 1777643189 | 7.22° C | 54% | 1026.9 hPa | - | - | - | - |
| 1777642289 | 8.89° C | 52% | 1026.6 hPa | - | - | - | - |
| 1777641389 | 8.33° C | 53% | 1027.1 hPa | - | - | - | - |
| 1777640489 | 8.89° C | 52% | 1026.7 hPa | - | - | - | - |
| 1777639589 | 8.89° C | 52% | 1026.9 hPa | - | - | - | - |
| 1777638689 | 8.89° C | 52% | 1026.9 hPa | - | - | - | - |
| 1777637788 | 8.89° C | 53% | 1026.7 hPa | - | - | - | - |
| 1777636888 | 10° C | 51% | 1026.9 hPa | - | - | - | - |
| 1777635988 | 8.89° C | 52% | 1027.2 hPa | - | - | - | - |
| 1777635088 | 8.89° C | 52% | 1027.1 hPa | - | - | - | - |
| 1777634188 | 7.78° C | 53% | 1027.2 hPa | - | - | - | - |
| 1777633288 | 7.78° C | 53% | 1027.1 hPa | - | - | - | - |
| 1777632388 | 10° C | 51% | 1027.2 hPa | - | - | - | - |
| 1777631487 | 7.78° C | 52% | 1027.1 hPa | - | - | - | - |
| 1777630587 | 6.67° C | 53% | 1027.2 hPa | - | - | - | - |
| 1777629687 | 7.22° C | 53% | 1027.4 hPa | - | - | - | - |
| 1777628787 | 7.22° C | 53% | 1027.2 hPa | - | - | - | - |
| 1777627887 | 7.22° C | 53% | 1027.5 hPa | - | - | - | - |
| 1777626986 | 6.67° C | 53% | 1027.4 hPa | - | - | - | - |
| 1777626086 | 7.22° C | 53% | 1027.6 hPa | - | - | - | - |
| 1777625185 | 7.22° C | 51% | 1027.5 hPa | - | - | - | - |
| 1777624285 | 6.67° C | 52% | 1027.4 hPa | - | - | - | - |
* Rain since midnight (hover to see other rain measurements)
** Current wind speed in m/s (hover to see current wind gust speed)